<?xml version="1.0" encoding="UTF-8" standalone="no" ?>
<gpx xmlns="http://www.topografix.com/GPX/1/1" xmlns:xsi="http://www.w3.org/2001/XMLSchema-instance" xsi:schemaLocation="http://www.topografix.com/GPX/1/1 http://www.topografix.com/GPX/1/1/gpx.xsd" version="1.1" creator="VisuGPX - https://www.visugpx.com">
  <metadata>
    <name>Joue_VioreauProvostiere_13-24km</name>
    <desc><![CDATA[gnerando idor:6087651_6502859_12533576]]></desc>
  </metadata>
  <trk>
    <name><![CDATA[Joué_VioreauProvostiereCourt_20.9km-12533575]]></name>
    <extensions>
      <line xmlns="http://www.topografix.com/GPX/gpx_style/0/2">
        <color>0000FF</color>
        <width>4</width>
      </line>
    </extensions>
    <trkseg>
      <trkpt lat="47.51814" lon="-1.43034">
        <ele>34</ele>
        <time>2023-11-02T10:50:30Z</time>
      </trkpt>
      <trkpt lat="47.51737" lon="-1.43049">
        <ele>34</ele>
        <time>2023-11-02T10:52:14Z</time>
      </trkpt>
      <trkpt lat="47.51758" lon="-1.42869">
        <ele>37</ele>
        <time>2023-11-02T10:54:58Z</time>
      </trkpt>
      <trkpt lat="47.51856" lon="-1.42852">
        <ele>36</ele>
        <time>2023-11-02T10:57:10Z</time>
      </trkpt>
      <trkpt lat="47.51897" lon="-1.42783">
        <ele>36</ele>
        <time>2023-11-02T10:58:33Z</time>
      </trkpt>
      <trkpt lat="47.51981" lon="-1.42114">
        <ele>34</ele>
        <time>2023-11-02T11:08:46Z</time>
      </trkpt>
      <trkpt lat="47.52082" lon="-1.42075">
        <ele>33</ele>
        <time>2023-11-02T11:11:05Z</time>
      </trkpt>
      <trkpt lat="47.52146" lon="-1.41749">
        <ele>33</ele>
        <time>2023-11-02T11:16:11Z</time>
      </trkpt>
      <trkpt lat="47.52149" lon="-1.41457">
        <ele>34</ele>
        <time>2023-11-02T11:20:34Z</time>
      </trkpt>
      <trkpt lat="47.52198" lon="-1.41316">
        <ele>34</ele>
        <time>2023-11-02T11:22:57Z</time>
      </trkpt>
      <trkpt lat="47.52273" lon="-1.4126">
        <ele>34</ele>
        <time>2023-11-02T11:24:49Z</time>
      </trkpt>
      <trkpt lat="47.52328" lon="-1.4105">
        <ele>34</ele>
        <time>2023-11-02T11:28:12Z</time>
      </trkpt>
      <trkpt lat="47.52418" lon="-1.41011">
        <ele>33</ele>
        <time>2023-11-02T11:30:18Z</time>
      </trkpt>
      <trkpt lat="47.52444" lon="-1.40822">
        <ele>33</ele>
        <time>2023-11-02T11:33:11Z</time>
      </trkpt>
      <trkpt lat="47.52389" lon="-1.40749">
        <ele>34</ele>
        <time>2023-11-02T11:34:50Z</time>
      </trkpt>
      <trkpt lat="47.52302" lon="-1.40788">
        <ele>34</ele>
        <time>2023-11-02T11:36:51Z</time>
      </trkpt>
      <trkpt lat="47.52323" lon="-1.40633">
        <ele>32</ele>
        <time>2023-11-02T11:39:14Z</time>
      </trkpt>
      <trkpt lat="47.52302" lon="-1.40462">
        <ele>33</ele>
        <time>2023-11-02T11:41:50Z</time>
      </trkpt>
      <trkpt lat="47.52331" lon="-1.40256">
        <ele>34</ele>
        <time>2023-11-02T11:45:00Z</time>
      </trkpt>
      <trkpt lat="47.52317" lon="-1.40075">
        <ele>33</ele>
        <time>2023-11-02T11:47:44Z</time>
      </trkpt>
      <trkpt lat="47.52224" lon="-1.40067">
        <ele>34</ele>
        <time>2023-11-02T11:49:48Z</time>
      </trkpt>
      <trkpt lat="47.52276" lon="-1.39715">
        <ele>33</ele>
        <time>2023-11-02T11:55:13Z</time>
      </trkpt>
      <trkpt lat="47.5223" lon="-1.39603">
        <ele>34</ele>
        <time>2023-11-02T11:57:11Z</time>
      </trkpt>
      <trkpt lat="47.52198" lon="-1.39513">
        <ele>33</ele>
        <time>2023-11-02T11:58:43Z</time>
      </trkpt>
      <trkpt lat="47.52215" lon="-1.3944">
        <ele>33</ele>
        <time>2023-11-02T11:59:53Z</time>
      </trkpt>
      <trkpt lat="47.523" lon="-1.39406">
        <ele>32</ele>
        <time>2023-11-02T12:01:50Z</time>
      </trkpt>
      <trkpt lat="47.52349" lon="-1.39286">
        <ele>34</ele>
        <time>2023-11-02T12:03:56Z</time>
      </trkpt>
      <trkpt lat="47.52447" lon="-1.39178">
        <ele>37</ele>
        <time>2023-11-02T12:06:39Z</time>
      </trkpt>
      <trkpt lat="47.52508" lon="-1.38771">
        <ele>38</ele>
        <time>2023-11-02T12:12:55Z</time>
      </trkpt>
      <trkpt lat="47.52569" lon="-1.38668">
        <ele>40</ele>
        <time>2023-11-02T12:14:59Z</time>
      </trkpt>
      <trkpt lat="47.5256" lon="-1.38616">
        <ele>39</ele>
        <time>2023-11-02T12:15:47Z</time>
      </trkpt>
      <trkpt lat="47.52439" lon="-1.38526">
        <ele>37</ele>
        <time>2023-11-02T12:18:48Z</time>
      </trkpt>
      <trkpt lat="47.52389" lon="-1.37415">
        <ele>41</ele>
        <time>2023-11-02T12:35:31Z</time>
      </trkpt>
      <trkpt lat="47.52094" lon="-1.37277">
        <ele>34</ele>
        <time>2023-11-02T12:42:24Z</time>
      </trkpt>
      <trkpt lat="47.52091" lon="-1.37123">
        <ele>33</ele>
        <time>2023-11-02T12:44:43Z</time>
      </trkpt>
      <trkpt lat="47.5212" lon="-1.36925">
        <ele>29</ele>
        <time>2023-11-02T12:47:45Z</time>
      </trkpt>
      <trkpt lat="47.52117" lon="-1.36685">
        <ele>29</ele>
        <time>2023-11-02T12:51:22Z</time>
      </trkpt>
      <trkpt lat="47.52175" lon="-1.36513">
        <ele>33</ele>
        <time>2023-11-02T12:54:15Z</time>
      </trkpt>
      <trkpt lat="47.52123" lon="-1.36372">
        <ele>30</ele>
        <time>2023-11-02T12:56:40Z</time>
      </trkpt>
      <trkpt lat="47.52123" lon="-1.36144">
        <ele>30</ele>
        <time>2023-11-02T13:00:05Z</time>
      </trkpt>
      <trkpt lat="47.52178" lon="-1.35908">
        <ele>29</ele>
        <time>2023-11-02T13:03:50Z</time>
      </trkpt>
      <trkpt lat="47.52276" lon="-1.3581">
        <ele>32</ele>
        <time>2023-11-02T13:06:28Z</time>
      </trkpt>
      <trkpt lat="47.52279" lon="-1.35664">
        <ele>33</ele>
        <time>2023-11-02T13:08:39Z</time>
      </trkpt>
      <trkpt lat="47.52172" lon="-1.35518">
        <ele>30</ele>
        <time>2023-11-02T13:11:54Z</time>
      </trkpt>
      <trkpt lat="47.52271" lon="-1.35187">
        <ele>30</ele>
        <time>2023-11-02T13:17:20Z</time>
      </trkpt>
      <trkpt lat="47.52328" lon="-1.34874">
        <ele>29</ele>
        <time>2023-11-02T13:22:12Z</time>
      </trkpt>
      <trkpt lat="47.52502" lon="-1.34677">
        <ele>32</ele>
        <time>2023-11-02T13:27:04Z</time>
      </trkpt>
      <trkpt lat="47.52552" lon="-1.34749">
        <ele>33</ele>
        <time>2023-11-02T13:28:37Z</time>
      </trkpt>
      <trkpt lat="47.52558" lon="-1.34879">
        <ele>35</ele>
        <time>2023-11-02T13:30:35Z</time>
      </trkpt>
      <trkpt lat="47.52622" lon="-1.34946">
        <ele>35</ele>
        <time>2023-11-02T13:32:19Z</time>
      </trkpt>
      <trkpt lat="47.52737" lon="-1.34922">
        <ele>35</ele>
        <time>2023-11-02T13:34:54Z</time>
      </trkpt>
      <trkpt lat="47.52648" lon="-1.34576">
        <ele>35</ele>
        <time>2023-11-02T13:40:28Z</time>
      </trkpt>
      <trkpt lat="47.52775" lon="-1.34449">
        <ele>36</ele>
        <time>2023-11-02T13:43:52Z</time>
      </trkpt>
      <trkpt lat="47.52925" lon="-1.34482">
        <ele>37</ele>
        <time>2023-11-02T13:47:15Z</time>
      </trkpt>
      <trkpt lat="47.53105" lon="-1.34415">
        <ele>39</ele>
        <time>2023-11-02T13:51:23Z</time>
      </trkpt>
      <trkpt lat="47.53269" lon="-1.34421">
        <ele>46</ele>
        <time>2023-11-02T13:55:01Z</time>
      </trkpt>
      <trkpt lat="47.53308" lon="-1.34484">
        <ele>49</ele>
        <time>2023-11-02T13:56:18Z</time>
      </trkpt>
      <trkpt lat="47.53273" lon="-1.34725">
        <ele>49</ele>
        <time>2023-11-02T14:00:01Z</time>
      </trkpt>
      <trkpt lat="47.53304" lon="-1.34825">
        <ele>49</ele>
        <time>2023-11-02T14:01:40Z</time>
      </trkpt>
      <trkpt lat="47.53659" lon="-1.34722">
        <ele>51</ele>
        <time>2023-11-02T14:09:42Z</time>
      </trkpt>
      <trkpt lat="47.5379" lon="-1.35377">
        <ele>58</ele>
        <time>2023-11-02T14:19:58Z</time>
      </trkpt>
      <trkpt lat="47.53615" lon="-1.35487">
        <ele>57</ele>
        <time>2023-11-02T14:24:12Z</time>
      </trkpt>
      <trkpt lat="47.53677" lon="-1.35735">
        <ele>58</ele>
        <time>2023-11-02T14:28:10Z</time>
      </trkpt>
      <trkpt lat="47.53683" lon="-1.35869">
        <ele>58</ele>
        <time>2023-11-02T14:30:11Z</time>
      </trkpt>
      <trkpt lat="47.53739" lon="-1.36012">
        <ele>58</ele>
        <time>2023-11-02T14:32:40Z</time>
      </trkpt>
      <trkpt lat="47.53601" lon="-1.36207">
        <ele>58</ele>
        <time>2023-11-02T14:36:54Z</time>
      </trkpt>
      <trkpt lat="47.53417" lon="-1.36373">
        <ele>52</ele>
        <time>2023-11-02T14:41:42Z</time>
      </trkpt>
      <trkpt lat="47.53341" lon="-1.36468">
        <ele>48</ele>
        <time>2023-11-02T14:43:54Z</time>
      </trkpt>
      <trkpt lat="47.53127" lon="-1.36736">
        <ele>48</ele>
        <time>2023-11-02T14:50:08Z</time>
      </trkpt>
      <trkpt lat="47.53033" lon="-1.36852">
        <ele>50</ele>
        <time>2023-11-02T14:52:52Z</time>
      </trkpt>
      <trkpt lat="47.53105" lon="-1.37213">
        <ele>47</ele>
        <time>2023-11-02T14:58:31Z</time>
      </trkpt>
      <trkpt lat="47.53085" lon="-1.3796">
        <ele>39</ele>
        <time>2023-11-02T15:09:44Z</time>
      </trkpt>
      <trkpt lat="47.53192" lon="-1.38131">
        <ele>40</ele>
        <time>2023-11-02T15:13:15Z</time>
      </trkpt>
      <trkpt lat="47.53227" lon="-1.38316">
        <ele>41</ele>
        <time>2023-11-02T15:16:08Z</time>
      </trkpt>
      <trkpt lat="47.53224" lon="-1.38629">
        <ele>46</ele>
        <time>2023-11-02T15:20:50Z</time>
      </trkpt>
      <trkpt lat="47.52995" lon="-1.38556">
        <ele>55</ele>
        <time>2023-11-02T15:26:02Z</time>
      </trkpt>
      <trkpt lat="47.52986" lon="-1.38612">
        <ele>56</ele>
        <time>2023-11-02T15:26:54Z</time>
      </trkpt>
      <trkpt lat="47.5287" lon="-1.38698">
        <ele>55</ele>
        <time>2023-11-02T15:29:47Z</time>
      </trkpt>
      <trkpt lat="47.52949" lon="-1.38972">
        <ele>59</ele>
        <time>2023-11-02T15:34:16Z</time>
      </trkpt>
      <trkpt lat="47.52954" lon="-1.39376">
        <ele>64</ele>
        <time>2023-11-02T15:40:20Z</time>
      </trkpt>
      <trkpt lat="47.53053" lon="-1.39603">
        <ele>62</ele>
        <time>2023-11-02T15:44:23Z</time>
      </trkpt>
      <trkpt lat="47.52963" lon="-1.39728">
        <ele>65</ele>
        <time>2023-11-02T15:47:08Z</time>
      </trkpt>
      <trkpt lat="47.5292" lon="-1.39904">
        <ele>55</ele>
        <time>2023-11-02T15:49:57Z</time>
      </trkpt>
      <trkpt lat="47.52954" lon="-1.40024">
        <ele>56</ele>
        <time>2023-11-02T15:51:54Z</time>
      </trkpt>
      <trkpt lat="47.52902" lon="-1.40058">
        <ele>51</ele>
        <time>2023-11-02T15:53:10Z</time>
      </trkpt>
      <trkpt lat="47.52865" lon="-1.40264">
        <ele>50</ele>
        <time>2023-11-02T15:56:22Z</time>
      </trkpt>
      <trkpt lat="47.5287" lon="-1.40586">
        <ele>52</ele>
        <time>2023-11-02T16:01:12Z</time>
      </trkpt>
      <trkpt lat="47.52853" lon="-1.40749">
        <ele>50</ele>
        <time>2023-11-02T16:03:41Z</time>
      </trkpt>
      <trkpt lat="47.5287" lon="-1.40869">
        <ele>55</ele>
        <time>2023-11-02T16:05:31Z</time>
      </trkpt>
      <trkpt lat="47.5307" lon="-1.41509">
        <ele>58</ele>
        <time>2023-11-02T16:16:07Z</time>
      </trkpt>
      <trkpt lat="47.53134" lon="-1.4174">
        <ele>55</ele>
        <time>2023-11-02T16:19:52Z</time>
      </trkpt>
      <trkpt lat="47.53149" lon="-1.42037">
        <ele>40</ele>
        <time>2023-11-02T16:24:20Z</time>
      </trkpt>
      <trkpt lat="47.5327" lon="-1.42049">
        <ele>45</ele>
        <time>2023-11-02T16:27:02Z</time>
      </trkpt>
      <trkpt lat="47.5334" lon="-1.42165">
        <ele>44</ele>
        <time>2023-11-02T16:29:22Z</time>
      </trkpt>
      <trkpt lat="47.53406" lon="-1.4217">
        <ele>46</ele>
        <time>2023-11-02T16:30:50Z</time>
      </trkpt>
      <trkpt lat="47.53372" lon="-1.42401">
        <ele>48</ele>
        <time>2023-11-02T16:34:23Z</time>
      </trkpt>
      <trkpt lat="47.53409" lon="-1.42702">
        <ele>60</ele>
        <time>2023-11-02T16:38:59Z</time>
      </trkpt>
      <trkpt lat="47.53435" lon="-1.42994">
        <ele>56</ele>
        <time>2023-11-02T16:43:24Z</time>
      </trkpt>
      <trkpt lat="47.53279" lon="-1.42998">
        <ele>52</ele>
        <time>2023-11-02T16:46:52Z</time>
      </trkpt>
      <trkpt lat="47.5312" lon="-1.43114">
        <ele>47</ele>
        <time>2023-11-02T16:50:49Z</time>
      </trkpt>
      <trkpt lat="47.53091" lon="-1.43449">
        <ele>37</ele>
        <time>2023-11-02T16:55:53Z</time>
      </trkpt>
      <trkpt lat="47.53128" lon="-1.4368">
        <ele>40</ele>
        <time>2023-11-02T16:59:27Z</time>
      </trkpt>
      <trkpt lat="47.52981" lon="-1.43805">
        <ele>35</ele>
        <time>2023-11-02T17:03:13Z</time>
      </trkpt>
      <trkpt lat="47.52679" lon="-1.44354">
        <ele>33</ele>
        <time>2023-11-02T17:13:51Z</time>
      </trkpt>
      <trkpt lat="47.52372" lon="-1.44328">
        <ele>34</ele>
        <time>2023-11-02T17:20:42Z</time>
      </trkpt>
      <trkpt lat="47.52369" lon="-1.43603">
        <ele>35</ele>
        <time>2023-11-02T17:31:35Z</time>
      </trkpt>
      <trkpt lat="47.52355" lon="-1.43474">
        <ele>35</ele>
        <time>2023-11-02T17:33:33Z</time>
      </trkpt>
      <trkpt lat="47.52357" lon="-1.43337">
        <ele>34</ele>
        <time>2023-11-02T17:35:36Z</time>
      </trkpt>
      <trkpt lat="47.52305" lon="-1.43195">
        <ele>35</ele>
        <time>2023-11-02T17:38:02Z</time>
      </trkpt>
      <trkpt lat="47.52297" lon="-1.43105">
        <ele>33</ele>
        <time>2023-11-02T17:39:24Z</time>
      </trkpt>
      <trkpt lat="47.51923" lon="-1.43028">
        <ele>34</ele>
        <time>2023-11-02T17:47:47Z</time>
      </trkpt>
      <trkpt lat="47.51865" lon="-1.43019">
        <ele>34</ele>
        <time>2023-11-02T17:49:05Z</time>
      </trkpt>
    </trkseg>
  </trk>
  <trk>
    <name><![CDATA[JoueE_RigoleEtForets_13km-6502859]]></name>
    <extensions>
      <line xmlns="http://www.topografix.com/GPX/gpx_style/0/2">
        <color>00FF00</color>
        <width>4</width>
      </line>
    </extensions>
    <trkseg>
      <trkpt lat="47.52696" lon="-1.41674">
        <ele>35</ele>
        <time>2023-11-02T10:49:04Z</time>
      </trkpt>
      <trkpt lat="47.52852" lon="-1.41603">
        <ele>47</ele>
        <time>2023-11-02T10:52:42Z</time>
      </trkpt>
      <trkpt lat="47.5307" lon="-1.41507">
        <ele>58</ele>
        <time>2023-11-02T10:57:45Z</time>
      </trkpt>
      <trkpt lat="47.53031" lon="-1.41399">
        <ele>63</ele>
        <time>2023-11-02T10:59:36Z</time>
      </trkpt>
      <trkpt lat="47.52943" lon="-1.41157">
        <ele>61</ele>
        <time>2023-11-02T11:03:43Z</time>
      </trkpt>
      <trkpt lat="47.52927" lon="-1.41103">
        <ele>60</ele>
        <time>2023-11-02T11:04:36Z</time>
      </trkpt>
      <trkpt lat="47.52876" lon="-1.40941">
        <ele>57</ele>
        <time>2023-11-02T11:07:17Z</time>
      </trkpt>
      <trkpt lat="47.52882" lon="-1.40907">
        <ele>58</ele>
        <time>2023-11-02T11:07:49Z</time>
      </trkpt>
      <trkpt lat="47.52853" lon="-1.40821">
        <ele>51</ele>
        <time>2023-11-02T11:09:16Z</time>
      </trkpt>
      <trkpt lat="47.52874" lon="-1.40621">
        <ele>52</ele>
        <time>2023-11-02T11:12:18Z</time>
      </trkpt>
      <trkpt lat="47.52859" lon="-1.4026">
        <ele>49</ele>
        <time>2023-11-02T11:17:44Z</time>
      </trkpt>
      <trkpt lat="47.52897" lon="-1.4015">
        <ele>52</ele>
        <time>2023-11-02T11:19:35Z</time>
      </trkpt>
      <trkpt lat="47.52907" lon="-1.40045">
        <ele>52</ele>
        <time>2023-11-02T11:21:11Z</time>
      </trkpt>
      <trkpt lat="47.52955" lon="-1.40006">
        <ele>56</ele>
        <time>2023-11-02T11:22:24Z</time>
      </trkpt>
      <trkpt lat="47.52928" lon="-1.39925">
        <ele>55</ele>
        <time>2023-11-02T11:23:45Z</time>
      </trkpt>
      <trkpt lat="47.52933" lon="-1.39858">
        <ele>58</ele>
        <time>2023-11-02T11:24:46Z</time>
      </trkpt>
      <trkpt lat="47.52964" lon="-1.39725">
        <ele>65</ele>
        <time>2023-11-02T11:26:53Z</time>
      </trkpt>
      <trkpt lat="47.52991" lon="-1.39679">
        <ele>65</ele>
        <time>2023-11-02T11:27:48Z</time>
      </trkpt>
      <trkpt lat="47.53052" lon="-1.39602">
        <ele>62</ele>
        <time>2023-11-02T11:29:35Z</time>
      </trkpt>
      <trkpt lat="47.53067" lon="-1.39569">
        <ele>60</ele>
        <time>2023-11-02T11:30:11Z</time>
      </trkpt>
      <trkpt lat="47.52966" lon="-1.39413">
        <ele>62</ele>
        <time>2023-11-02T11:33:25Z</time>
      </trkpt>
      <trkpt lat="47.5294" lon="-1.39369">
        <ele>66</ele>
        <time>2023-11-02T11:34:18Z</time>
      </trkpt>
      <trkpt lat="47.52957" lon="-1.39162">
        <ele>65</ele>
        <time>2023-11-02T11:37:26Z</time>
      </trkpt>
      <trkpt lat="47.52952" lon="-1.39046">
        <ele>64</ele>
        <time>2023-11-02T11:39:11Z</time>
      </trkpt>
      <trkpt lat="47.52941" lon="-1.38974">
        <ele>60</ele>
        <time>2023-11-02T11:40:17Z</time>
      </trkpt>
      <trkpt lat="47.52942" lon="-1.38946">
        <ele>58</ele>
        <time>2023-11-02T11:40:42Z</time>
      </trkpt>
      <trkpt lat="47.52868" lon="-1.3874">
        <ele>54</ele>
        <time>2023-11-02T11:44:13Z</time>
      </trkpt>
      <trkpt lat="47.52887" lon="-1.38691">
        <ele>55</ele>
        <time>2023-11-02T11:45:04Z</time>
      </trkpt>
      <trkpt lat="47.52938" lon="-1.38645">
        <ele>56</ele>
        <time>2023-11-02T11:46:23Z</time>
      </trkpt>
      <trkpt lat="47.52991" lon="-1.38598">
        <ele>56</ele>
        <time>2023-11-02T11:47:46Z</time>
      </trkpt>
      <trkpt lat="47.52997" lon="-1.38541">
        <ele>55</ele>
        <time>2023-11-02T11:48:38Z</time>
      </trkpt>
      <trkpt lat="47.53056" lon="-1.38562">
        <ele>51</ele>
        <time>2023-11-02T11:49:59Z</time>
      </trkpt>
      <trkpt lat="47.53229" lon="-1.38623">
        <ele>45</ele>
        <time>2023-11-02T11:53:56Z</time>
      </trkpt>
      <trkpt lat="47.53226" lon="-1.38412">
        <ele>43</ele>
        <time>2023-11-02T11:57:06Z</time>
      </trkpt>
      <trkpt lat="47.53222" lon="-1.38217">
        <ele>40</ele>
        <time>2023-11-02T12:00:02Z</time>
      </trkpt>
      <trkpt lat="47.53205" lon="-1.38152">
        <ele>40</ele>
        <time>2023-11-02T12:01:05Z</time>
      </trkpt>
      <trkpt lat="47.53152" lon="-1.3809">
        <ele>40</ele>
        <time>2023-11-02T12:02:35Z</time>
      </trkpt>
      <trkpt lat="47.53089" lon="-1.3798">
        <ele>39</ele>
        <time>2023-11-02T12:04:45Z</time>
      </trkpt>
      <trkpt lat="47.53113" lon="-1.37521">
        <ele>42</ele>
        <time>2023-11-02T12:11:40Z</time>
      </trkpt>
      <trkpt lat="47.53111" lon="-1.37355">
        <ele>46</ele>
        <time>2023-11-02T12:14:09Z</time>
      </trkpt>
      <trkpt lat="47.53111" lon="-1.37222">
        <ele>47</ele>
        <time>2023-11-02T12:16:09Z</time>
      </trkpt>
      <trkpt lat="47.53093" lon="-1.37048">
        <ele>49</ele>
        <time>2023-11-02T12:18:48Z</time>
      </trkpt>
      <trkpt lat="47.53029" lon="-1.36865">
        <ele>50</ele>
        <time>2023-11-02T12:21:53Z</time>
      </trkpt>
      <trkpt lat="47.53035" lon="-1.3685">
        <ele>50</ele>
        <time>2023-11-02T12:22:09Z</time>
      </trkpt>
      <trkpt lat="47.53001" lon="-1.36552">
        <ele>51</ele>
        <time>2023-11-02T12:26:41Z</time>
      </trkpt>
      <trkpt lat="47.52989" lon="-1.36532">
        <ele>52</ele>
        <time>2023-11-02T12:27:05Z</time>
      </trkpt>
      <trkpt lat="47.53116" lon="-1.36245">
        <ele>48</ele>
        <time>2023-11-02T12:32:15Z</time>
      </trkpt>
      <trkpt lat="47.53226" lon="-1.35918">
        <ele>56</ele>
        <time>2023-11-02T12:37:44Z</time>
      </trkpt>
      <trkpt lat="47.53112" lon="-1.35758">
        <ele>51</ele>
        <time>2023-11-02T12:41:13Z</time>
      </trkpt>
      <trkpt lat="47.52949" lon="-1.35594">
        <ele>43</ele>
        <time>2023-11-02T12:45:36Z</time>
      </trkpt>
      <trkpt lat="47.52792" lon="-1.35464">
        <ele>37</ele>
        <time>2023-11-02T12:49:36Z</time>
      </trkpt>
      <trkpt lat="47.52756" lon="-1.35395">
        <ele>37</ele>
        <time>2023-11-02T12:50:55Z</time>
      </trkpt>
      <trkpt lat="47.52745" lon="-1.3535">
        <ele>37</ele>
        <time>2023-11-02T12:51:38Z</time>
      </trkpt>
      <trkpt lat="47.52743" lon="-1.35333">
        <ele>38</ele>
        <time>2023-11-02T12:51:54Z</time>
      </trkpt>
      <trkpt lat="47.52738" lon="-1.35294">
        <ele>37</ele>
        <time>2023-11-02T12:52:29Z</time>
      </trkpt>
      <trkpt lat="47.5269" lon="-1.35163">
        <ele>37</ele>
        <time>2023-11-02T12:54:44Z</time>
      </trkpt>
      <trkpt lat="47.52617" lon="-1.3502">
        <ele>36</ele>
        <time>2023-11-02T12:57:25Z</time>
      </trkpt>
      <trkpt lat="47.52568" lon="-1.34967">
        <ele>36</ele>
        <time>2023-11-02T12:58:46Z</time>
      </trkpt>
      <trkpt lat="47.52554" lon="-1.34882">
        <ele>35</ele>
        <time>2023-11-02T13:00:05Z</time>
      </trkpt>
      <trkpt lat="47.52548" lon="-1.34762">
        <ele>33</ele>
        <time>2023-11-02T13:01:54Z</time>
      </trkpt>
      <trkpt lat="47.52506" lon="-1.34678">
        <ele>32</ele>
        <time>2023-11-02T13:03:28Z</time>
      </trkpt>
      <trkpt lat="47.52444" lon="-1.34766">
        <ele>32</ele>
        <time>2023-11-02T13:05:22Z</time>
      </trkpt>
      <trkpt lat="47.52352" lon="-1.34845">
        <ele>29</ele>
        <time>2023-11-02T13:07:44Z</time>
      </trkpt>
      <trkpt lat="47.5234" lon="-1.34876">
        <ele>30</ele>
        <time>2023-11-02T13:08:16Z</time>
      </trkpt>
      <trkpt lat="47.52258" lon="-1.35326">
        <ele>33</ele>
        <time>2023-11-02T13:15:16Z</time>
      </trkpt>
      <trkpt lat="47.52197" lon="-1.35507">
        <ele>32</ele>
        <time>2023-11-02T13:18:19Z</time>
      </trkpt>
      <trkpt lat="47.522" lon="-1.35532">
        <ele>33</ele>
        <time>2023-11-02T13:18:42Z</time>
      </trkpt>
      <trkpt lat="47.52275" lon="-1.35627">
        <ele>34</ele>
        <time>2023-11-02T13:20:53Z</time>
      </trkpt>
      <trkpt lat="47.52304" lon="-1.35692">
        <ele>32</ele>
        <time>2023-11-02T13:22:04Z</time>
      </trkpt>
      <trkpt lat="47.52303" lon="-1.35769">
        <ele>32</ele>
        <time>2023-11-02T13:23:13Z</time>
      </trkpt>
      <trkpt lat="47.52279" lon="-1.35825">
        <ele>33</ele>
        <time>2023-11-02T13:24:13Z</time>
      </trkpt>
      <trkpt lat="47.52201" lon="-1.35899">
        <ele>30</ele>
        <time>2023-11-02T13:26:16Z</time>
      </trkpt>
      <trkpt lat="47.52164" lon="-1.3597">
        <ele>30</ele>
        <time>2023-11-02T13:27:37Z</time>
      </trkpt>
      <trkpt lat="47.52129" lon="-1.36237">
        <ele>30</ele>
        <time>2023-11-02T13:31:42Z</time>
      </trkpt>
      <trkpt lat="47.52138" lon="-1.36422">
        <ele>31</ele>
        <time>2023-11-02T13:34:29Z</time>
      </trkpt>
      <trkpt lat="47.52148" lon="-1.3645">
        <ele>31</ele>
        <time>2023-11-02T13:34:58Z</time>
      </trkpt>
      <trkpt lat="47.52192" lon="-1.36512">
        <ele>33</ele>
        <time>2023-11-02T13:36:19Z</time>
      </trkpt>
      <trkpt lat="47.52184" lon="-1.36543">
        <ele>33</ele>
        <time>2023-11-02T13:36:49Z</time>
      </trkpt>
      <trkpt lat="47.52133" lon="-1.36656">
        <ele>30</ele>
        <time>2023-11-02T13:38:51Z</time>
      </trkpt>
      <trkpt lat="47.52137" lon="-1.36931">
        <ele>30</ele>
        <time>2023-11-02T13:42:59Z</time>
      </trkpt>
      <trkpt lat="47.52111" lon="-1.36992">
        <ele>29</ele>
        <time>2023-11-02T13:44:04Z</time>
      </trkpt>
      <trkpt lat="47.52103" lon="-1.3711">
        <ele>32</ele>
        <time>2023-11-02T13:45:51Z</time>
      </trkpt>
      <trkpt lat="47.52103" lon="-1.37271">
        <ele>34</ele>
        <time>2023-11-02T13:48:16Z</time>
      </trkpt>
      <trkpt lat="47.52211" lon="-1.37331">
        <ele>36</ele>
        <time>2023-11-02T13:50:50Z</time>
      </trkpt>
      <trkpt lat="47.52268" lon="-1.37349">
        <ele>36</ele>
        <time>2023-11-02T13:52:08Z</time>
      </trkpt>
      <trkpt lat="47.52372" lon="-1.3739">
        <ele>40</ele>
        <time>2023-11-02T13:54:32Z</time>
      </trkpt>
      <trkpt lat="47.52402" lon="-1.37417">
        <ele>41</ele>
        <time>2023-11-02T13:55:18Z</time>
      </trkpt>
      <trkpt lat="47.52419" lon="-1.37643">
        <ele>44</ele>
        <time>2023-11-02T13:58:43Z</time>
      </trkpt>
      <trkpt lat="47.52424" lon="-1.37905">
        <ele>43</ele>
        <time>2023-11-02T14:02:40Z</time>
      </trkpt>
      <trkpt lat="47.52424" lon="-1.37996">
        <ele>42</ele>
        <time>2023-11-02T14:04:02Z</time>
      </trkpt>
      <trkpt lat="47.5243" lon="-1.3821">
        <ele>41</ele>
        <time>2023-11-02T14:07:15Z</time>
      </trkpt>
      <trkpt lat="47.52441" lon="-1.38419">
        <ele>39</ele>
        <time>2023-11-02T14:10:23Z</time>
      </trkpt>
      <trkpt lat="47.52441" lon="-1.38451">
        <ele>38</ele>
        <time>2023-11-02T14:10:52Z</time>
      </trkpt>
      <trkpt lat="47.52462" lon="-1.38521">
        <ele>37</ele>
        <time>2023-11-02T14:12:01Z</time>
      </trkpt>
      <trkpt lat="47.5249" lon="-1.38565">
        <ele>37</ele>
        <time>2023-11-02T14:12:56Z</time>
      </trkpt>
      <trkpt lat="47.52529" lon="-1.38594">
        <ele>38</ele>
        <time>2023-11-02T14:13:54Z</time>
      </trkpt>
      <trkpt lat="47.52571" lon="-1.38595">
        <ele>40</ele>
        <time>2023-11-02T14:14:50Z</time>
      </trkpt>
      <trkpt lat="47.52587" lon="-1.38623">
        <ele>41</ele>
        <time>2023-11-02T14:15:23Z</time>
      </trkpt>
      <trkpt lat="47.52592" lon="-1.38653">
        <ele>42</ele>
        <time>2023-11-02T14:15:51Z</time>
      </trkpt>
      <trkpt lat="47.52575" lon="-1.38705">
        <ele>42</ele>
        <time>2023-11-02T14:16:43Z</time>
      </trkpt>
      <trkpt lat="47.52542" lon="-1.38741">
        <ele>40</ele>
        <time>2023-11-02T14:17:38Z</time>
      </trkpt>
      <trkpt lat="47.5253" lon="-1.38796">
        <ele>41</ele>
        <time>2023-11-02T14:18:30Z</time>
      </trkpt>
      <trkpt lat="47.52493" lon="-1.39025">
        <ele>37</ele>
        <time>2023-11-02T14:22:02Z</time>
      </trkpt>
      <trkpt lat="47.52474" lon="-1.39146">
        <ele>38</ele>
        <time>2023-11-02T14:23:54Z</time>
      </trkpt>
      <trkpt lat="47.52462" lon="-1.39193">
        <ele>37</ele>
        <time>2023-11-02T14:24:39Z</time>
      </trkpt>
      <trkpt lat="47.5234" lon="-1.39324">
        <ele>33</ele>
        <time>2023-11-02T14:28:00Z</time>
      </trkpt>
      <trkpt lat="47.52306" lon="-1.39587">
        <ele>33</ele>
        <time>2023-11-02T14:32:02Z</time>
      </trkpt>
      <trkpt lat="47.52338" lon="-1.39593">
        <ele>33</ele>
        <time>2023-11-02T14:32:45Z</time>
      </trkpt>
      <trkpt lat="47.5238" lon="-1.39606">
        <ele>35</ele>
        <time>2023-11-02T14:33:42Z</time>
      </trkpt>
      <trkpt lat="47.52364" lon="-1.39675">
        <ele>35</ele>
        <time>2023-11-02T14:34:48Z</time>
      </trkpt>
      <trkpt lat="47.52355" lon="-1.3974">
        <ele>34</ele>
        <time>2023-11-02T14:35:47Z</time>
      </trkpt>
      <trkpt lat="47.52348" lon="-1.39801">
        <ele>33</ele>
        <time>2023-11-02T14:36:43Z</time>
      </trkpt>
      <trkpt lat="47.52348" lon="-1.39848">
        <ele>32</ele>
        <time>2023-11-02T14:37:26Z</time>
      </trkpt>
      <trkpt lat="47.52345" lon="-1.39883">
        <ele>32</ele>
        <time>2023-11-02T14:37:57Z</time>
      </trkpt>
      <trkpt lat="47.52346" lon="-1.39921">
        <ele>31</ele>
        <time>2023-11-02T14:38:32Z</time>
      </trkpt>
      <trkpt lat="47.52378" lon="-1.39959">
        <ele>32</ele>
        <time>2023-11-02T14:39:26Z</time>
      </trkpt>
      <trkpt lat="47.52425" lon="-1.40005">
        <ele>33</ele>
        <time>2023-11-02T14:40:42Z</time>
      </trkpt>
      <trkpt lat="47.52457" lon="-1.40097">
        <ele>33</ele>
        <time>2023-11-02T14:42:15Z</time>
      </trkpt>
      <trkpt lat="47.52463" lon="-1.40153">
        <ele>32</ele>
        <time>2023-11-02T14:43:06Z</time>
      </trkpt>
      <trkpt lat="47.52477" lon="-1.40222">
        <ele>32</ele>
        <time>2023-11-02T14:44:11Z</time>
      </trkpt>
      <trkpt lat="47.52491" lon="-1.40278">
        <ele>33</ele>
        <time>2023-11-02T14:45:05Z</time>
      </trkpt>
      <trkpt lat="47.52491" lon="-1.40306">
        <ele>34</ele>
        <time>2023-11-02T14:45:30Z</time>
      </trkpt>
      <trkpt lat="47.5248" lon="-1.40331">
        <ele>35</ele>
        <time>2023-11-02T14:45:57Z</time>
      </trkpt>
      <trkpt lat="47.52502" lon="-1.40469">
        <ele>35</ele>
        <time>2023-11-02T14:48:05Z</time>
      </trkpt>
      <trkpt lat="47.52531" lon="-1.40538">
        <ele>34</ele>
        <time>2023-11-02T14:49:18Z</time>
      </trkpt>
      <trkpt lat="47.52576" lon="-1.40551">
        <ele>35</ele>
        <time>2023-11-02T14:50:19Z</time>
      </trkpt>
      <trkpt lat="47.52556" lon="-1.40609">
        <ele>34</ele>
        <time>2023-11-02T14:51:18Z</time>
      </trkpt>
      <trkpt lat="47.52621" lon="-1.40697">
        <ele>35</ele>
        <time>2023-11-02T14:53:15Z</time>
      </trkpt>
      <trkpt lat="47.52631" lon="-1.40734">
        <ele>34</ele>
        <time>2023-11-02T14:53:51Z</time>
      </trkpt>
      <trkpt lat="47.52613" lon="-1.40812">
        <ele>35</ele>
        <time>2023-11-02T14:55:05Z</time>
      </trkpt>
      <trkpt lat="47.52607" lon="-1.40956">
        <ele>35</ele>
        <time>2023-11-02T14:57:15Z</time>
      </trkpt>
      <trkpt lat="47.52619" lon="-1.40984">
        <ele>34</ele>
        <time>2023-11-02T14:57:45Z</time>
      </trkpt>
      <trkpt lat="47.52641" lon="-1.41085">
        <ele>33</ele>
        <time>2023-11-02T14:59:21Z</time>
      </trkpt>
      <trkpt lat="47.52656" lon="-1.41091">
        <ele>34</ele>
        <time>2023-11-02T14:59:42Z</time>
      </trkpt>
      <trkpt lat="47.52677" lon="-1.41158">
        <ele>37</ele>
        <time>2023-11-02T15:00:48Z</time>
      </trkpt>
      <trkpt lat="47.5269" lon="-1.41217">
        <ele>39</ele>
        <time>2023-11-02T15:01:44Z</time>
      </trkpt>
      <trkpt lat="47.52683" lon="-1.41243">
        <ele>38</ele>
        <time>2023-11-02T15:02:09Z</time>
      </trkpt>
      <trkpt lat="47.52683" lon="-1.4133">
        <ele>38</ele>
        <time>2023-11-02T15:03:28Z</time>
      </trkpt>
      <trkpt lat="47.52674" lon="-1.41409">
        <ele>36</ele>
        <time>2023-11-02T15:04:40Z</time>
      </trkpt>
      <trkpt lat="47.52677" lon="-1.41636">
        <ele>34</ele>
        <time>2023-11-02T15:08:04Z</time>
      </trkpt>
      <trkpt lat="47.52696" lon="-1.41674">
        <ele>35</ele>
        <time>2023-11-02T15:08:47Z</time>
      </trkpt>
    </trkseg>
  </trk>
  <trk>
    <name><![CDATA[Joué_VioreauProvostière_23.8km-6087651]]></name>
    <extensions>
      <line xmlns="http://www.topografix.com/GPX/gpx_style/0/2">
        <color>FF0000</color>
        <width>4</width>
      </line>
    </extensions>
    <trkseg>
      <trkpt lat="47.51814" lon="-1.43034">
        <ele>34</ele>
        <time>2023-11-02T10:48:46Z</time>
      </trkpt>
      <trkpt lat="47.51737" lon="-1.43049">
        <ele>34</ele>
        <time>2023-11-02T10:50:30Z</time>
      </trkpt>
      <trkpt lat="47.51758" lon="-1.42869">
        <ele>37</ele>
        <time>2023-11-02T10:53:14Z</time>
      </trkpt>
      <trkpt lat="47.51856" lon="-1.42852">
        <ele>36</ele>
        <time>2023-11-02T10:55:26Z</time>
      </trkpt>
      <trkpt lat="47.51897" lon="-1.42783">
        <ele>36</ele>
        <time>2023-11-02T10:56:49Z</time>
      </trkpt>
      <trkpt lat="47.51981" lon="-1.42114">
        <ele>34</ele>
        <time>2023-11-02T11:07:02Z</time>
      </trkpt>
      <trkpt lat="47.52082" lon="-1.42075">
        <ele>33</ele>
        <time>2023-11-02T11:09:21Z</time>
      </trkpt>
      <trkpt lat="47.52146" lon="-1.41749">
        <ele>33</ele>
        <time>2023-11-02T11:14:27Z</time>
      </trkpt>
      <trkpt lat="47.52149" lon="-1.41457">
        <ele>34</ele>
        <time>2023-11-02T11:18:50Z</time>
      </trkpt>
      <trkpt lat="47.52198" lon="-1.41316">
        <ele>34</ele>
        <time>2023-11-02T11:21:13Z</time>
      </trkpt>
      <trkpt lat="47.52273" lon="-1.4126">
        <ele>34</ele>
        <time>2023-11-02T11:23:05Z</time>
      </trkpt>
      <trkpt lat="47.52328" lon="-1.4105">
        <ele>34</ele>
        <time>2023-11-02T11:26:28Z</time>
      </trkpt>
      <trkpt lat="47.52418" lon="-1.41011">
        <ele>33</ele>
        <time>2023-11-02T11:28:34Z</time>
      </trkpt>
      <trkpt lat="47.52444" lon="-1.40822">
        <ele>33</ele>
        <time>2023-11-02T11:31:27Z</time>
      </trkpt>
      <trkpt lat="47.52389" lon="-1.40749">
        <ele>34</ele>
        <time>2023-11-02T11:33:06Z</time>
      </trkpt>
      <trkpt lat="47.52302" lon="-1.40788">
        <ele>34</ele>
        <time>2023-11-02T11:35:07Z</time>
      </trkpt>
      <trkpt lat="47.52323" lon="-1.40633">
        <ele>32</ele>
        <time>2023-11-02T11:37:30Z</time>
      </trkpt>
      <trkpt lat="47.52302" lon="-1.40462">
        <ele>33</ele>
        <time>2023-11-02T11:40:06Z</time>
      </trkpt>
      <trkpt lat="47.52331" lon="-1.40256">
        <ele>34</ele>
        <time>2023-11-02T11:43:16Z</time>
      </trkpt>
      <trkpt lat="47.52317" lon="-1.40075">
        <ele>33</ele>
        <time>2023-11-02T11:46:00Z</time>
      </trkpt>
      <trkpt lat="47.52224" lon="-1.40067">
        <ele>34</ele>
        <time>2023-11-02T11:48:04Z</time>
      </trkpt>
      <trkpt lat="47.52276" lon="-1.39715">
        <ele>33</ele>
        <time>2023-11-02T11:53:29Z</time>
      </trkpt>
      <trkpt lat="47.5223" lon="-1.39603">
        <ele>34</ele>
        <time>2023-11-02T11:55:27Z</time>
      </trkpt>
      <trkpt lat="47.52198" lon="-1.39513">
        <ele>33</ele>
        <time>2023-11-02T11:56:59Z</time>
      </trkpt>
      <trkpt lat="47.52215" lon="-1.3944">
        <ele>33</ele>
        <time>2023-11-02T11:58:09Z</time>
      </trkpt>
      <trkpt lat="47.523" lon="-1.39406">
        <ele>32</ele>
        <time>2023-11-02T12:00:06Z</time>
      </trkpt>
      <trkpt lat="47.52349" lon="-1.39286">
        <ele>34</ele>
        <time>2023-11-02T12:02:12Z</time>
      </trkpt>
      <trkpt lat="47.52447" lon="-1.39178">
        <ele>37</ele>
        <time>2023-11-02T12:04:55Z</time>
      </trkpt>
      <trkpt lat="47.52508" lon="-1.38771">
        <ele>38</ele>
        <time>2023-11-02T12:11:11Z</time>
      </trkpt>
      <trkpt lat="47.52569" lon="-1.38668">
        <ele>40</ele>
        <time>2023-11-02T12:13:15Z</time>
      </trkpt>
      <trkpt lat="47.5256" lon="-1.38616">
        <ele>39</ele>
        <time>2023-11-02T12:14:03Z</time>
      </trkpt>
      <trkpt lat="47.52439" lon="-1.38526">
        <ele>37</ele>
        <time>2023-11-02T12:17:04Z</time>
      </trkpt>
      <trkpt lat="47.52389" lon="-1.37415">
        <ele>41</ele>
        <time>2023-11-02T12:33:47Z</time>
      </trkpt>
      <trkpt lat="47.52094" lon="-1.37277">
        <ele>34</ele>
        <time>2023-11-02T12:40:40Z</time>
      </trkpt>
      <trkpt lat="47.52091" lon="-1.37123">
        <ele>33</ele>
        <time>2023-11-02T12:42:59Z</time>
      </trkpt>
      <trkpt lat="47.5212" lon="-1.36925">
        <ele>29</ele>
        <time>2023-11-02T12:46:01Z</time>
      </trkpt>
      <trkpt lat="47.52117" lon="-1.36685">
        <ele>29</ele>
        <time>2023-11-02T12:49:38Z</time>
      </trkpt>
      <trkpt lat="47.52175" lon="-1.36513">
        <ele>33</ele>
        <time>2023-11-02T12:52:31Z</time>
      </trkpt>
      <trkpt lat="47.52123" lon="-1.36372">
        <ele>30</ele>
        <time>2023-11-02T12:54:56Z</time>
      </trkpt>
      <trkpt lat="47.52123" lon="-1.36144">
        <ele>30</ele>
        <time>2023-11-02T12:58:21Z</time>
      </trkpt>
      <trkpt lat="47.52178" lon="-1.35908">
        <ele>29</ele>
        <time>2023-11-02T13:02:06Z</time>
      </trkpt>
      <trkpt lat="47.52276" lon="-1.3581">
        <ele>32</ele>
        <time>2023-11-02T13:04:44Z</time>
      </trkpt>
      <trkpt lat="47.52279" lon="-1.35664">
        <ele>33</ele>
        <time>2023-11-02T13:06:55Z</time>
      </trkpt>
      <trkpt lat="47.52172" lon="-1.35518">
        <ele>30</ele>
        <time>2023-11-02T13:10:10Z</time>
      </trkpt>
      <trkpt lat="47.52271" lon="-1.35187">
        <ele>30</ele>
        <time>2023-11-02T13:15:36Z</time>
      </trkpt>
      <trkpt lat="47.52328" lon="-1.34874">
        <ele>29</ele>
        <time>2023-11-02T13:20:28Z</time>
      </trkpt>
      <trkpt lat="47.52502" lon="-1.34677">
        <ele>32</ele>
        <time>2023-11-02T13:25:20Z</time>
      </trkpt>
      <trkpt lat="47.52384" lon="-1.34539">
        <ele>32</ele>
        <time>2023-11-02T13:28:41Z</time>
      </trkpt>
      <trkpt lat="47.52453" lon="-1.34196">
        <ele>33</ele>
        <time>2023-11-02T13:34:03Z</time>
      </trkpt>
      <trkpt lat="47.52442" lon="-1.34114">
        <ele>33</ele>
        <time>2023-11-02T13:35:19Z</time>
      </trkpt>
      <trkpt lat="47.52517" lon="-1.33848">
        <ele>32</ele>
        <time>2023-11-02T13:39:39Z</time>
      </trkpt>
      <trkpt lat="47.52555" lon="-1.33827">
        <ele>31</ele>
        <time>2023-11-02T13:40:33Z</time>
      </trkpt>
      <trkpt lat="47.52589" lon="-1.33741">
        <ele>32</ele>
        <time>2023-11-02T13:42:02Z</time>
      </trkpt>
      <trkpt lat="47.52502" lon="-1.33462">
        <ele>32</ele>
        <time>2023-11-02T13:46:39Z</time>
      </trkpt>
      <trkpt lat="47.52601" lon="-1.33106">
        <ele>33</ele>
        <time>2023-11-02T13:52:26Z</time>
      </trkpt>
      <trkpt lat="47.52459" lon="-1.3299">
        <ele>32</ele>
        <time>2023-11-02T13:56:03Z</time>
      </trkpt>
      <trkpt lat="47.52531" lon="-1.32634">
        <ele>32</ele>
        <time>2023-11-02T14:01:38Z</time>
      </trkpt>
      <trkpt lat="47.52514" lon="-1.32492">
        <ele>32</ele>
        <time>2023-11-02T14:03:48Z</time>
      </trkpt>
      <trkpt lat="47.52601" lon="-1.32303">
        <ele>31</ele>
        <time>2023-11-02T14:07:14Z</time>
      </trkpt>
      <trkpt lat="47.5272" lon="-1.32252">
        <ele>32</ele>
        <time>2023-11-02T14:09:59Z</time>
      </trkpt>
      <trkpt lat="47.52812" lon="-1.32016">
        <ele>32</ele>
        <time>2023-11-02T14:14:05Z</time>
      </trkpt>
      <trkpt lat="47.53047" lon="-1.32527">
        <ele>33</ele>
        <time>2023-11-02T14:23:22Z</time>
      </trkpt>
      <trkpt lat="47.52969" lon="-1.326">
        <ele>32</ele>
        <time>2023-11-02T14:25:25Z</time>
      </trkpt>
      <trkpt lat="47.52949" lon="-1.32818">
        <ele>33</ele>
        <time>2023-11-02T14:28:43Z</time>
      </trkpt>
      <trkpt lat="47.52894" lon="-1.33007">
        <ele>32</ele>
        <time>2023-11-02T14:31:48Z</time>
      </trkpt>
      <trkpt lat="47.52923" lon="-1.33084">
        <ele>33</ele>
        <time>2023-11-02T14:33:08Z</time>
      </trkpt>
      <trkpt lat="47.52856" lon="-1.3329">
        <ele>32</ele>
        <time>2023-11-02T14:36:34Z</time>
      </trkpt>
      <trkpt lat="47.5287" lon="-1.33591">
        <ele>33</ele>
        <time>2023-11-02T14:41:06Z</time>
      </trkpt>
      <trkpt lat="47.52882" lon="-1.33883">
        <ele>39</ele>
        <time>2023-11-02T14:45:29Z</time>
      </trkpt>
      <trkpt lat="47.5283" lon="-1.34166">
        <ele>35</ele>
        <time>2023-11-02T14:49:54Z</time>
      </trkpt>
      <trkpt lat="47.52862" lon="-1.34247">
        <ele>36</ele>
        <time>2023-11-02T14:51:18Z</time>
      </trkpt>
      <trkpt lat="47.52775" lon="-1.34449">
        <ele>36</ele>
        <time>2023-11-02T14:54:54Z</time>
      </trkpt>
      <trkpt lat="47.53308" lon="-1.34484">
        <ele>49</ele>
        <time>2023-11-02T15:06:46Z</time>
      </trkpt>
      <trkpt lat="47.53276" lon="-1.34728">
        <ele>49</ele>
        <time>2023-11-02T15:10:30Z</time>
      </trkpt>
      <trkpt lat="47.53256" lon="-1.3496">
        <ele>46</ele>
        <time>2023-11-02T15:14:01Z</time>
      </trkpt>
      <trkpt lat="47.53227" lon="-1.35144">
        <ele>48</ele>
        <time>2023-11-02T15:16:51Z</time>
      </trkpt>
      <trkpt lat="47.53383" lon="-1.35282">
        <ele>57</ele>
        <time>2023-11-02T15:20:53Z</time>
      </trkpt>
      <trkpt lat="47.53421" lon="-1.35483">
        <ele>64</ele>
        <time>2023-11-02T15:24:02Z</time>
      </trkpt>
      <trkpt lat="47.53453" lon="-1.35569">
        <ele>66</ele>
        <time>2023-11-02T15:25:30Z</time>
      </trkpt>
      <trkpt lat="47.53366" lon="-1.35754">
        <ele>68</ele>
        <time>2023-11-02T15:28:53Z</time>
      </trkpt>
      <trkpt lat="47.53241" lon="-1.35865">
        <ele>59</ele>
        <time>2023-11-02T15:32:08Z</time>
      </trkpt>
      <trkpt lat="47.53233" lon="-1.35934">
        <ele>57</ele>
        <time>2023-11-02T15:33:11Z</time>
      </trkpt>
      <trkpt lat="47.52989" lon="-1.36539">
        <ele>52</ele>
        <time>2023-11-02T15:43:46Z</time>
      </trkpt>
      <trkpt lat="47.53033" lon="-1.36852">
        <ele>50</ele>
        <time>2023-11-02T15:48:34Z</time>
      </trkpt>
      <trkpt lat="47.53105" lon="-1.37213">
        <ele>47</ele>
        <time>2023-11-02T15:54:13Z</time>
      </trkpt>
      <trkpt lat="47.53085" lon="-1.3796">
        <ele>39</ele>
        <time>2023-11-02T16:05:26Z</time>
      </trkpt>
      <trkpt lat="47.53192" lon="-1.38131">
        <ele>40</ele>
        <time>2023-11-02T16:08:57Z</time>
      </trkpt>
      <trkpt lat="47.53227" lon="-1.38316">
        <ele>41</ele>
        <time>2023-11-02T16:11:50Z</time>
      </trkpt>
      <trkpt lat="47.53224" lon="-1.38629">
        <ele>46</ele>
        <time>2023-11-02T16:16:32Z</time>
      </trkpt>
      <trkpt lat="47.52995" lon="-1.38556">
        <ele>55</ele>
        <time>2023-11-02T16:21:44Z</time>
      </trkpt>
      <trkpt lat="47.52986" lon="-1.38612">
        <ele>56</ele>
        <time>2023-11-02T16:22:36Z</time>
      </trkpt>
      <trkpt lat="47.5287" lon="-1.38698">
        <ele>55</ele>
        <time>2023-11-02T16:25:29Z</time>
      </trkpt>
      <trkpt lat="47.52949" lon="-1.38972">
        <ele>59</ele>
        <time>2023-11-02T16:29:58Z</time>
      </trkpt>
      <trkpt lat="47.52954" lon="-1.39376">
        <ele>64</ele>
        <time>2023-11-02T16:36:02Z</time>
      </trkpt>
      <trkpt lat="47.53053" lon="-1.39603">
        <ele>62</ele>
        <time>2023-11-02T16:40:05Z</time>
      </trkpt>
      <trkpt lat="47.52963" lon="-1.39728">
        <ele>65</ele>
        <time>2023-11-02T16:42:50Z</time>
      </trkpt>
      <trkpt lat="47.5292" lon="-1.39904">
        <ele>55</ele>
        <time>2023-11-02T16:45:39Z</time>
      </trkpt>
      <trkpt lat="47.52954" lon="-1.40024">
        <ele>56</ele>
        <time>2023-11-02T16:47:36Z</time>
      </trkpt>
      <trkpt lat="47.52902" lon="-1.40058">
        <ele>51</ele>
        <time>2023-11-02T16:48:52Z</time>
      </trkpt>
      <trkpt lat="47.52865" lon="-1.40264">
        <ele>50</ele>
        <time>2023-11-02T16:52:04Z</time>
      </trkpt>
      <trkpt lat="47.5287" lon="-1.40586">
        <ele>52</ele>
        <time>2023-11-02T16:56:54Z</time>
      </trkpt>
      <trkpt lat="47.52853" lon="-1.40749">
        <ele>50</ele>
        <time>2023-11-02T16:59:23Z</time>
      </trkpt>
      <trkpt lat="47.5287" lon="-1.40869">
        <ele>55</ele>
        <time>2023-11-02T17:01:13Z</time>
      </trkpt>
      <trkpt lat="47.5307" lon="-1.41509">
        <ele>58</ele>
        <time>2023-11-02T17:11:49Z</time>
      </trkpt>
      <trkpt lat="47.53134" lon="-1.4174">
        <ele>55</ele>
        <time>2023-11-02T17:15:34Z</time>
      </trkpt>
      <trkpt lat="47.53149" lon="-1.42037">
        <ele>40</ele>
        <time>2023-11-02T17:20:02Z</time>
      </trkpt>
      <trkpt lat="47.5327" lon="-1.42049">
        <ele>45</ele>
        <time>2023-11-02T17:22:44Z</time>
      </trkpt>
      <trkpt lat="47.5334" lon="-1.42165">
        <ele>44</ele>
        <time>2023-11-02T17:25:04Z</time>
      </trkpt>
      <trkpt lat="47.53406" lon="-1.4217">
        <ele>46</ele>
        <time>2023-11-02T17:26:32Z</time>
      </trkpt>
      <trkpt lat="47.53372" lon="-1.42401">
        <ele>48</ele>
        <time>2023-11-02T17:30:05Z</time>
      </trkpt>
      <trkpt lat="47.53409" lon="-1.42702">
        <ele>60</ele>
        <time>2023-11-02T17:34:41Z</time>
      </trkpt>
      <trkpt lat="47.53435" lon="-1.42994">
        <ele>56</ele>
        <time>2023-11-02T17:39:06Z</time>
      </trkpt>
      <trkpt lat="47.53279" lon="-1.42998">
        <ele>52</ele>
        <time>2023-11-02T17:42:34Z</time>
      </trkpt>
      <trkpt lat="47.5312" lon="-1.43114">
        <ele>47</ele>
        <time>2023-11-02T17:46:31Z</time>
      </trkpt>
      <trkpt lat="47.53091" lon="-1.43449">
        <ele>37</ele>
        <time>2023-11-02T17:51:35Z</time>
      </trkpt>
      <trkpt lat="47.53128" lon="-1.4368">
        <ele>40</ele>
        <time>2023-11-02T17:55:09Z</time>
      </trkpt>
      <trkpt lat="47.52981" lon="-1.43805">
        <ele>35</ele>
        <time>2023-11-02T17:58:55Z</time>
      </trkpt>
      <trkpt lat="47.52679" lon="-1.44354">
        <ele>33</ele>
        <time>2023-11-02T18:09:33Z</time>
      </trkpt>
      <trkpt lat="47.52372" lon="-1.44328">
        <ele>34</ele>
        <time>2023-11-02T18:16:24Z</time>
      </trkpt>
      <trkpt lat="47.52369" lon="-1.43603">
        <ele>35</ele>
        <time>2023-11-02T18:27:17Z</time>
      </trkpt>
      <trkpt lat="47.52355" lon="-1.43474">
        <ele>35</ele>
        <time>2023-11-02T18:29:15Z</time>
      </trkpt>
      <trkpt lat="47.52357" lon="-1.43337">
        <ele>34</ele>
        <time>2023-11-02T18:31:18Z</time>
      </trkpt>
      <trkpt lat="47.52305" lon="-1.43195">
        <ele>35</ele>
        <time>2023-11-02T18:33:44Z</time>
      </trkpt>
      <trkpt lat="47.52297" lon="-1.43105">
        <ele>33</ele>
        <time>2023-11-02T18:35:06Z</time>
      </trkpt>
      <trkpt lat="47.51923" lon="-1.43028">
        <ele>34</ele>
        <time>2023-11-02T18:43:29Z</time>
      </trkpt>
      <trkpt lat="47.51865" lon="-1.43019">
        <ele>34</ele>
        <time>2023-11-02T18:44:47Z</time>
      </trkpt>
    </trkseg>
  </trk>
</gpx>